{"data":{"norad_id":52121,"epoch":"2026-05-25T03:24:22.627584Z","epoch_age_seconds":62460,"freshness":"FRESH","line1":"1 52121U 22029AK  26145.14192856 -.00000926  00000+0 -40080-4 0  9994","line2":"2 52121  53.2126  85.9110 0001593  51.3729 308.7405 15.08842328232466","mean_motion":15.08842328,"eccentricity":0.0001593,"inclination_deg":53.2126,"raan_deg":85.911,"arg_perigee_deg":51.3729,"mean_anomaly_deg":308.7405,"bstar":-4.008e-5,"rev_number":23246,"period_min":95.437407426709,"perigee_km":538.63425599616,"apogee_km":540.838290421,"semimajor_km":6917.8732732086,"source":"CELESTRAK","updated_at":"2026-05-25T13:38:17.075533Z"}}